User: anonymous   Login
Location: PACMO
(41.3967°N, 90.3760°W)
Time: 22:39:57
(UTC-06:00)
Language:

BREEZE-M DEB (TANK) - Orbit

View from above orbital plane
View from above orbital plane
View from above satellite
View from above satellite

Ground track
Ground track

The orbit data is extracted from the following two-line orbital elements,

1 31863U 07032B   16040.06103860  .00001102  00000-0  66041-3 0  9992
2 31863  45.9720  48.8240 4991883 288.4386  24.9298  5.51841539172237
Epoch (UTC): 09 February 2016 01:27:53
Eccentricity: 0.4991883
inclination: 45.9720°
perigee height: 396 km
apogee height: 13901 km
right ascension of ascending node: 48.8240°
argument of perigee: 288.4386°
revolutions per day: 5.51841539
mean anomaly at epoch: 24.9298°
orbit number at epoch: 17223

The dashed part of the orbit path shows where the satellite is in the earth's shadow,  

DLR